STARLINK-32678 (62309 NORAD) Tracking and Keplerian Element Data

This shows tracking and keplerian element data for the satellite.

Feedback or suggestion? Click here.




ElementValue
Catalog62309
NameSTARLINK-32678
Epoch Orbit828
Epoch Day35.00804284
Epoch Year2025
RAAN250.0412
Inclination53.1588
Eccentricity0.0001059
Argument of Perigee76.2801
Mean Anonmoly283.8321
Mean Motion15.39613646
Decay Rate-4.87E-06
L11 62309U 24239J 25035.00804284 -.00000487 00000+0 -21870-5 0 9994
L22 62309 53.1588 250.0412 0001059 76.2801 283.8321 15.39613646 8284



Live tracking and technical data element details for STARLINK-32678 (NORAD 62309). STARLINK-32678 can be tracked NOW for your location showing map with azimuth and elevation plus other details from your city location.







IsCatalogInMostPopularTable: catalog: 62309, numindb: 14
Update: records affected: 1



GetName: 62309 STARLINK-32678

Hit Count: updated at: Sat, 24 May 2025 16:57:40 GMT